User: anonymous   Login
Location: Overspoor
(51.4747°N, 5.6641°E)
Time: 12:45:40
(UTC+02:00)
Language:

SPROUT - Orbit

View from above orbital plane
View from above orbital plane
View from above satellite
View from above satellite

Ground track
Ground track

The orbit data is extracted from the following two-line orbital elements,

1 39770U 14029E   22176.23433083  .00006060  00000-0  61822-3 0  9990
2 39770  97.9440 293.2203 0009872  67.0231 293.1968 14.90985949438828
Epoch (UTC): 25 June 2022 05:37:26
Eccentricity: 0.0009872
inclination: 97.9440°
perigee height: 588 km
apogee height: 602 km
right ascension of ascending node: 293.2203°
argument of perigee: 67.0231°
revolutions per day: 14.90985949
mean anomaly at epoch: 293.1968°
orbit number at epoch: 43882

The dashed part of the orbit path shows where the satellite is in the earth's shadow,  

DLR